This demonstration page uses our WeatherBlox Daily Observations layout. Learn more.

39.92423, -83.80882

Hourly Observations for June 16, 2020

Temp ( °F °C ) Dew Point ( °F °C ) Humidity (%) Winds ( mph kmh ) Pressure ( in mb ) Visibility ( mi km ) Precip ( " mm )
12:56 am 00:56 Mostly Clear 61 16.1 58 14.4 90 90 Calm 30.31 1027 10 16.0934 0 0
1:56 am 01:56 Clear 60 15.6 58 14.4 93 93 Calm 30.31 1027 10 16.0934 0 0
2:56 am 02:56 Clear 56 13.3 56 13.3 100 100 N 6 9 30.31 1027 10 16.0934 0 0
3:56 am 03:56 Clear 55 12.8 55 12.8 100 100 N 5 7 30.32 1027 10 16.0934 0 0
4:56 am 04:56 Clear 56 13.3 56 13.3 100 100 ENE 3 6 30.32 1027 10 16.0934 0 0
5:56 am 05:56 Clear 55 12.8 55 12.8 100 100 Calm 30.33 1027 9 14.48406 0 0
6:56 am 06:56 Sunny 55 12.8 55 12.8 100 100 NE 3 6 30.35 1028 7 11.26538 0 0
7:56 am 07:56 Sunny 62 16.7 60 15.6 93 93 E 3 6 30.35 1028 10 16.0934 0 0
8:56 am 08:56 Sunny 66 18.9 59 15 78 78 Calm 30.36 1028 10 16.0934 0 0
9:56 am 09:56 Sunny 70 21.1 61 16.1 73 73 NE 3 6 30.36 1028 10 16.0934 0 0
10:56 am 10:56 Sunny 74 23.3 58 14.4 57 57 ENE 9 15 30.35 1028 10 16.0934 0 0
11:56 am 11:56 Mostly Sunny 76 24.4 57 13.9 52 52 E 7 11 30.34 1027 10 16.0934 0.03 0.762
12:56 pm 12:56 Partly Cloudy 76 24.4 57 13.9 52 52 ENE 14 22 30.32 1027 10 16.0934 0 0
1:56 pm 13:56 Mostly Cloudy 77 25 56 13.3 48 48 E 13 20 30.3 1026 10 16.0934 0 0
2:56 pm 14:56 Mostly Cloudy 80 26.7 57 13.9 45 45 E 8 13 30.28 1025 10 16.0934 0 0
3:56 pm 15:56 Mostly Cloudy 78 25.6 56 13.3 47 47 ENE 14 22 30.26 1025 10 16.0934 0 0
4:56 pm 16:56 Mostly Cloudy 78 25.6 55 12.8 45 45 SE 9 15 30.24 1024 10 16.0934 0 0
5:56 pm 17:56 Sunny 78 25.6 57 13.9 48 48 E 7 11 30.23 1024 10 16.0934 0 0
6:56 pm 18:56 Mostly Sunny 77 25 55 12.8 47 47 ENE 12 19 30.22 1023 10 16.0934 0 0
7:56 pm 19:56 Mostly Sunny 76 24.4 54 12.2 47 47 ENE 14 22 30.21 1023 10 16.0934 0 0
8:56 pm 20:56 Sunny 72 22.2 54 12.2 53 53 ESE 7 11 30.22 1023 10 16.0934 0 0
9:56 pm 21:56 Clear 69 20.6 55 12.8 61 61 SE 8 13 30.23 1024 10 16.0934 0 0
10:56 pm 22:56 Clear 66 18.9 55 12.8 68 68 Calm 30.23 1024 10 16.0934 0 0
11:56 pm 23:56 Clear 63 17.2 55 12.8 76 76 NNE 3 6 30.23 1024 10 16.0934 0 0

Powered by AerisWeather